FW7275 Weather Reports


time (UTC)temp
C
wind
direction
speed
KPH
gust
KPH
rain 1hr
cm
rain 24hr
cm
rain mn
cm
humidity
%
barometer
mb
20260506002032 12 0 0.0 0.0 0.00 0.00 0.00 86
20260506001025 12 0 0.0 0.0 0.00 0.00 0.00 86
20260505234030 12 0 0.0 0.0 0.03 0.00 0.05 85
20260505233029 12 0 0.0 0.0 0.05 0.00 0.05 85
20260505232021 12 0 0.0 0.0 0.05 0.00 0.05 85
20260505231023 12 0 0.0 0.0 0.05 0.00 0.05 85
20260505230041 12 0 0.0 0.0 0.05 0.00 0.05 85
20260505224034 13 0 0.0 0.0 0.03 0.00 0.03 83
20260505222023 13 0 0.0 0.0 0.00 0.00 0.00 83
20260505220031 13 0 0.0 0.0 0.00 0.00 0.00 82
20260505215025 13 0 0.0 0.0 0.00 0.00 0.00 81
20260505214020 13 0 0.0 0.0 0.00 0.00 0.00 81
20260505213035 13 0 0.0 0.0 0.00 0.00 0.00 80
20260505212024 14 0 0.0 0.0 0.00 0.00 0.00 78
20260505211025 15 0 0.0 0.0 0.00 0.00 0.00 74
20260505205031 15 0 0.0 0.0 0.00 0.00 0.00 75
20260505204028 15 0 0.0 0.0 0.00 0.00 0.00 76
20260505203031 14 0 0.0 0.0 0.00 0.00 0.00 77
20260505202045 14 0 0.0 0.0 0.00 0.00 0.00 79
20260505201025 14 0 0.0 0.0 0.00 0.00 0.00 79
20260505194025 15 0 0.0 0.0 0.00 0.00 0.00 77
20260505193027 15 0 0.0 0.0 0.00 0.00 0.00 76
20260505192032 15 0 0.0 0.0 0.00 0.00 0.00 75
20260505190038 15 0 0.0 0.0 0.00 0.00 0.00 74
20260505184027 16 0 0.0 0.0 0.00 0.00 0.00 71
20260505183033 16 0 0.0 0.0 0.00 0.00 0.00 70
20260505182020 16 0 0.0 0.0 0.00 0.00 0.00 68
20260505181030 17 0 0.0 0.0 0.00 0.00 0.00 68
20260505180035 17 0 0.0 0.0 0.00 0.00 0.00 66
20260505175021 17 0 0.0 0.0 0.00 0.00 0.00 66
20260505174036 17 0 0.0 0.0 0.00 0.00 0.00 64
20260505173026 17 0 0.0 0.0 0.00 0.00 0.00 64
20260505172026 17 0 0.0 0.0 0.00 0.00 0.00 64
20260505171023 18 0 0.0 0.0 0.00 0.00 0.00 63
20260505170041 18 0 0.0 0.0 0.00 0.00 0.00 61
20260505165023 19 0 0.0 0.0 0.00 0.00 0.00 61
20260505164028 18 0 0.0 0.0 0.00 0.00 0.00 63
20260505162027 18 0 0.0 0.0 0.00 0.00 0.00 64
20260505161030 18 0 0.0 0.0 0.00 0.00 0.00 63
20260505153029 18 0 0.0 0.0 0.00 0.00 0.00 63
20260505152033 18 0 0.0 0.0 0.00 0.00 0.00 63
20260505151025 18 0 0.0 0.0 0.00 0.00 0.00 62
20260505124030 26 0 0.0 0.0 0.00 0.00 0.00 33
20260505123028 26 0 0.0 0.0 0.00 0.00 0.00 34
20260505122022 26 0 0.0 0.0 0.00 0.00 0.00 33
20260505121027 27 0 0.0 0.0 0.00 0.00 0.00 32
20260505120035 27 0 0.0 0.0 0.00 0.00 0.00 32
20260505115027 27 0 0.0 0.0 0.00 0.00 0.00 34
20260505114022 26 0 0.0 0.0 0.00 0.00 0.00 34
20260505113030 26 0 0.0 0.0 0.00 0.00 0.00 36
20260505111028 26 0 0.0 0.0 0.00 0.00 0.00 36
20260505101032 25 0 0.0 0.0 0.00 0.00 0.00 38
20260505100029 25 0 0.0 0.0 0.00 0.00 0.00 39
20260505095020 24 0 0.0 0.0 0.00 0.00 0.00 42
20260505094041 25 0 0.0 0.0 0.00 0.00 0.00 45
20260505093032 24 0 0.0 0.0 0.00 0.00 0.00 46
20260505092031 24 0 0.0 0.0 0.00 0.00 0.00 47
20260505084020 22 0 0.0 0.0 0.00 0.00 0.00 52
20260505082035 20 0 0.0 0.0 0.00 0.00 0.00 60
20260505081031 19 0 0.0 0.0 0.00 0.00 0.00 63
20260505075033 18 0 0.0 0.0 0.00 0.00 0.00 62
20260505074029 19 0 0.0 0.0 0.00 0.00 0.00 61
20260505072025 20 0 0.0 0.0 0.00 0.00 0.00 61
20260505070027 19 0 0.0 0.0 0.00 0.00 0.00 63
20260505064027 19 0 0.0 0.0 0.00 0.00 0.00 63
20260505063037 19 0 0.0 0.0 0.00 0.00 0.00 63
20260505061033 18 0 0.0 0.0 0.00 0.00 0.00 64
20260505060033 18 0 0.0 0.0 0.00 0.00 0.00 65
20260505054028 17 0 0.0 0.0 0.00 0.00 0.00 68
20260505053023 16 0 0.0 0.0 0.00 0.00 0.00 71
20260505052023 15 0 0.0 0.0 0.00 0.00 0.00 74
20260505051018 13 0 0.0 0.0 0.00 0.00 0.00 77
20260505041025 8 0 0.0 0.0 0.00 0.00 0.00 84
20260505035019 9 0 0.0 0.0 0.00 0.00 0.00 84
20260505034033 9 0 0.0 0.0 0.00 0.00 0.00 84
20260505032021 9 0 0.0 0.0 0.00 0.00 0.00 82
20260505025030 10 0 0.0 0.0 0.00 0.00 0.00 81
20260505024023 10 0 0.0 0.0 0.00 0.00 0.00 82
20260505023028 10 0 0.0 0.0 0.00 0.00 0.00 81
20260505022018 10 0 0.0 0.0 0.00 0.00 0.00 80
20260505021023 10 0 0.0 0.0 0.00 0.00 0.00 80
20260505020033 11 0 0.0 0.0 0.00 0.00 0.00 79
20260505015017 11 0 0.0 0.0 0.00 0.00 0.00 79
20260505014019 11 0 0.0 0.0 0.00 0.00 0.00 78
20260505013031 11 0 0.0 0.0 0.00 0.00 0.00 77
20260505012023 11 0 0.0 0.0 0.00 0.00 0.00 78
20260505010033 12 0 0.0 0.0 0.00 0.00 0.00 77
20260505005030 12 0 0.0 0.0 0.00 0.00 0.00 76
20260505004027 12 0 0.0 0.0 0.00 0.00 0.00 76
20260505003032 13 0 0.0 0.0 0.00 0.00 0.00 76